Starlink 34941

operational
NORAD ID: 65210 Int'l Des: 2025-176 Owner: SPXS Country: US Constellation: starlink
LEOCIRCULAR

Über Starlink 34941

Beschreibung wird geladen...

Live-Position

3D-Globus wird geladen...

Nächste Überflüge

Höhenverlauf

Altitude vs Time

uPlot chart will show altitude changes over time

Zweizeiliger Elementsatz

1 65210U 25176N 25340.94603072 .00038779 00000-0 13145-2 0 9990
2 65210 53.1582 223.3249 0001179 85.6702 274.4433 15.30202285 18926
Epoch: 6. Dez. 2025 • Age: 23 hours

Aktueller Status

Höhe 482.0 km
Geschwindigkeit 7.62 km/s
Subsatellitenpunkt -23.12°S, 151.97°E
Startdatum 14. Aug. 2025
Alter 0.3 years
Typ internet

Technische Details

Klassifizierung Payload
Masse 575.00 kg
Trockenmasse 530.00 kg
Gesamtmasse 575.00 kg
Länge 0.30 m
Durchmesser 4.10 m
Spannweite 29.00 m
Form Box + pan
Hersteller SPXS
Bus-Typ Starlink V2MO
Phasenstatus In Orbit
Besitzer/Staat SPXS/US

Große Konstellationen

Loading constellations...